#timestamp,LO_Frequency,Hit,StdDev 
1691222415.9,286047011.9,Y
1691222435.7,286046998.1,P
1691222455.5,286046998.2,P
1691222475.4,286046999.1,P
1691222495.2,286046998.5,Y
1691222515.0,286047000.1,P
1691222516.0,286047000.1,N
1691222535.8,286047002.7,P
1691222555.6,286046999.7,N
1691222575.5,286047002.2,N
1691222595.3,286047002.3,N
1691222615.1,286047002.4,N
1691222665.9,286047002.4,E
1691222675.8,286046999.9,N
1691222695.7,286046998.5,P
1691222715.5,286046998.8,N
1691222735.3,286046999.0,N
1691222755.2,286046998.2,Y
1691222775.0,286047000.4,P
1691222775.9,286047000.4,N
1691222795.8,286047001.0,N
1691222815.6,286047000.6,N
1691222835.4,286047001.1,N
1691222855.3,286046998.6,N
1691222875.1,286046998.2,N
1691222895.8,286047000.9,N
1691222915.7,286047000.4,N
1691222935.5,286047000.4,N
1691222955.4,286047002.4,N
1691222975.2,286047002.3,N
1691222995.0,286047002.1,N
1691222995.9,286047002.1,N
1691223015.8,286047001.4,N
1691223035.6,286047001.3,N
1691223055.4,286047004.2,Y
1691223075.3,286047001.9,P
1691223095.1,286047001.8,P
1691223115.9,286046999.8,N
1691223135.7,286047002.4,N
1691223155.5,286046999.7,N
1691223175.4,286047002.7,N
1691223195.2,286047000.3,N
1691223215.0,286047002.5,N
1691223215.9,286047002.5,N
1691223235.8,286047002.2,N
1691223255.6,286047002.6,N
1691223275.5,286047001.8,N
1691223295.3,286047002.5,N
1691223315.1,286047002.4,N
1691223335.9,286047002.2,N
1691223355.7,286047002.0,N
1691223375.5,286047002.6,N
1691223395.4,286047002.2,N
1691223415.2,286047002.6,N
1691223435.1,286047001.4,N
1691223436.0,286047001.4,N
1691223455.8,286047001.5,N
1691223475.6,286047001.5,N
1691223495.5,286047002.0,N
1691223515.3,286047002.1,N
1691223535.1,286047002.1,N
1691223555.9,286047004.0,Y
1691223575.7,286047002.6,P
1691223595.6,286047002.6,P
1691223615.4,286047002.3,P
1691223635.2,286047002.7,Y
1691223655.1,286046998.2,P
1691223656.0,286046998.2,N
1691223675.8,286046998.3,N
1691223695.7,286047001.2,N
1691223715.5,286046998.7,N
1691223735.3,286046999.3,N
1691223755.2,286046998.4,N
1691223775.9,286046998.4,N
1691223795.7,286046999.4,N
1691223815.6,286046999.3,N
1691223835.4,286046999.1,N
1691223855.3,286046999.4,N
1691223875.1,286046998.3,N
1691223876.0,286046998.3,N
1691223895.8,286047000.7,N
1691223915.7,286047000.9,N
1691223935.5,286047001.0,N
1691223955.3,286047001.1,N
1691223975.2,286046998.4,N
1691223995.0,286046998.7,N
1691223995.9,286046998.7,N
1691224015.8,286046998.3,N
1691224035.6,286046998.5,N
1691224055.4,286046998.1,N
1691224075.3,286047000.8,N
1691224095.1,286046999.9,N
1691224115.9,286047000.0,N
1691224135.7,286047000.4,N
1691224155.5,286047002.2,N
1691224175.4,286047007.0,Y
1691224195.2,286047008.5,P
1691224215.0,286047007.5,N
1691224216.0,286047007.5,N
1691224235.8,286047005.5,N
1691224255.6,286047005.3,N
1691224275.5,286047003.3,N
1691224295.3,286047003.4,N
1691224315.1,286047003.1,N
1691224335.9,286047003.4,N
1691224355.7,286047003.3,N
1691224375.6,286047005.6,N
1691224395.4,286047005.7,N
1691224415.2,286047005.3,N
1691224435.1,286047005.5,N
1691224436.0,286047005.5,N
1691224455.8,286047005.8,N
1691224475.6,286047003.3,N
1691224495.5,286047002.9,N
1691224515.3,286047005.5,N
1691224535.2,286047007.2,Y
1691224555.0,286047002.7,P
1691224555.9,286047002.7,N
1691224575.7,286046999.8,N
1691224595.6,286047001.1,N
1691224615.4,286047001.1,N
1691224635.3,286047001.0,N
1691224655.1,286047001.1,N
1691224656.0,286047001.1,N
1691224675.8,286047001.0,N
1691224695.7,286047011.9,Y
1691224715.5,286046997.1,P
1691224735.4,286046997.2,N
1691224755.2,286046996.6,N
1691224775.0,286046996.7,N
1691224775.9,286046996.7,N
1691224795.8,286046996.9,N
1691224815.6,286046996.7,N
1691224835.5,286046999.5,N
1691224855.3,286046997.7,N
1691224875.1,286046996.9,N
1691224895.9,286046996.7,N
1691224915.7,286046996.5,N
1691224935.6,286046995.2,Y
1691224955.4,286046999.2,P
1691224975.2,286046999.6,N
1691224995.1,286046998.7,N
1691224996.0,286046998.7,N
1691225015.8,286046999.9,N
1691225035.7,286046999.8,N
1691225055.5,286047000.1,N
1691225075.3,286047005.0,Y
1691225095.2,286047005.4,P
1691225115.9,286047005.8,N
1691225135.7,286047003.2,N
1691225155.6,286047004.2,N
1691225175.4,286047003.4,N
1691225195.2,286047003.5,N
1691225215.1,286047003.1,N
1691225216.0,286047003.1,N
1691225235.8,286047003.4,N
1691225285.7,286047006.0,E
1691225295.6,286047001.8,N
1691225315.5,286046999.3,P
1691225335.3,286046999.2,N
1691225355.1,286046997.0,N
1691225375.9,286046997.3,N
1691225395.7,286046996.9,N
1691225415.5,286046996.7,N
1691225435.4,286046997.2,N
1691225455.2,286046997.2,N
1691225475.1,286046996.8,N
1691225476.0,286046996.8,N
1691225495.8,286046997.2,N
1691225515.6,286046997.8,N
1691225535.5,286046996.8,N
1691225555.3,286046997.7,N
1691225575.2,286046997.7,N
1691225595.9,286046997.5,N
1691225615.7,286046997.9,N
1691225635.6,286046997.7,N
1691225655.4,286046997.2,N
1691225675.2,286046998.0,N
1691225695.1,286046997.7,N
1691225696.0,286046997.7,N
1691225715.8,286046998.0,N
1691225735.7,286046994.9,Y
1691225755.5,286046999.0,P
1691225775.3,286046999.3,N
1691225795.2,286047011.9,P
1691225815.0,286046998.4,N
1691225815.9,286046998.4,N
1691225835.7,286046996.5,N
1691225855.6,286046999.0,N
1691225875.4,286046998.2,N
1691225895.3,286046998.6,N
1691225915.1,286046998.2,N
1691225935.8,286046999.3,N
1691225955.7,286046998.5,N
1691225975.5,286046998.5,N
1691225995.4,286047000.7,N
